Deer Park, WA
on Monday, January 14, 2013

Monday
Previous Day Next Day
Daily Summary
 ActualAverageRecord
Temperature
Mean Temperature °F 27°F  
Max Temperature 23°F 33°F 42°F (2011)
Min Temperature 15°F 21°F -11°F (2005)
Degree Days
Heating Degree Days 46 38  
Month to date heating degree days 598 544  
Since 1 July heating degree days 3391 3771  
Cooling Degree Days 0 0  
Month to date cooling degree days 0 0  
Year to date cooling degree days 0 0  
Moisture
Dew Point 17°F   
Average Humidity 92    
Maximum Humidity 100    
Minimum Humidity 84    
Precipitation
Precipitation T in 0.08 in 0.53 in (2006)
Month to date precipitation 1.11 1.40  
Year to date precipitation 1.11 1.40  
Wind
Wind Speed 0 mph   
Max Wind Speed 5 mph   
Max Gust Speed 6 mph   
Visibility 6 miles   
Events Snow   

Key: T is trace of precipitation, MM is missing value
Source: NWS Daily Summary
Time(PST)TemperatureDew PointHumidity Pressure Visibility Wind DirectionWind SpeedGust SpeedPrecipitationEvents Conditions
12:53 AM 16.0°F 12.9°F 88% 30.48 in 5.0 miles Calm Calm - 0.00 in Snow Light Snow
1:18 AM 15.8°F 12.2°F 86% 30.35 in 4.0 miles Calm Calm - 0.00 in Snow Light Snow
1:53 AM 16.0°F 12.9°F 88% 30.47 in 5.0 miles Calm Calm - 0.00 in Snow Light Snow
2:53 AM 16.0°F 12.9°F 88% 30.47 in 6.0 miles Calm Calm - 0.00 in Snow Light Snow
3:08 AM 17.6°F 12.2°F 79% 30.35 in 6.0 miles Calm Calm - 0.00 in Snow Light Snow
3:37 AM 15.8°F 12.2°F 86% 30.35 in 6.0 miles Calm Calm - 0.00 in   Overcast
3:53 AM 16.0°F 12.9°F 88% 30.45 in 8.0 miles Calm Calm - 0.00 in   Overcast
4:12 AM 15.8°F 14.0°F 93% 30.33 in 9.0 miles Calm Calm - N/A   Overcast
4:24 AM 15.8°F 14.0°F 93% 30.32 in 9.0 miles Calm Calm - N/A   Overcast
4:53 AM 16.0°F 14.0°F 92% 30.43 in 9.0 miles Calm Calm - N/A   Overcast
5:10 AM 15.8°F 14.0°F 93% 30.31 in 8.0 miles Calm Calm - N/A   Overcast
5:53 AM 17.1°F 15.1°F 92% 30.43 in 3.0 miles Calm Calm - 0.00 in Snow Light Snow
6:24 AM 17.6°F 15.8°F 93% 30.31 in 2.0 miles Calm Calm - 0.00 in Snow Light Snow
6:32 AM 17.6°F 15.8°F 93% 30.31 in 1.8 miles Calm Calm - 0.00 in Snow Light Snow
6:36 AM 17.6°F 15.8°F 93% 30.31 in 2.0 miles Calm Calm - 0.00 in Snow Light Snow
6:48 AM 17.6°F 15.8°F 93% 30.32 in 2.5 miles Calm Calm - 0.00 in Snow Light Snow
6:53 AM 17.1°F 14.0°F 88% 30.44 in 4.0 miles Calm Calm - 0.00 in Snow Light Snow
7:46 AM 17.6°F 15.8°F 93% 30.31 in 2.5 miles Calm Calm - 0.00 in   Overcast
7:53 AM 18.0°F 16.0°F 92% 30.43 in 1.8 miles Calm Calm - 0.00 in   Overcast
8:07 AM 17.6°F 15.8°F 93% 30.32 in 2.0 miles Calm Calm - N/A   Overcast
8:28 AM 17.6°F 17.6°F 100% 30.31 in 1.8 miles Calm Calm - N/A   Overcast
8:36 AM 17.6°F 17.6°F 100% 30.31 in 1.5 miles Calm Calm - N/A   Overcast
8:50 AM 17.6°F 17.6°F 100% 30.31 in 1.8 miles Calm Calm - N/A   Overcast
8:53 AM 18.0°F 17.1°F 96% 30.42 in 1.5 miles Calm Calm - N/A   Overcast
9:41 AM 19.4°F 17.6°F 93% 30.30 in 1.5 miles Calm Calm - N/A   Overcast
9:50 AM 19.4°F 17.6°F 93% 30.29 in 1.5 miles Calm Calm - N/A   Overcast
9:53 AM 19.9°F 19.0°F 96% 30.41 in 1.5 miles Calm Calm - N/A   Overcast
10:12 AM 19.4°F 19.4°F 100% 30.30 in 2.5 miles Calm Calm - N/A   Overcast
10:24 AM 19.4°F 19.4°F 100% 30.31 in 3.0 miles Calm Calm - N/A   Overcast
10:53 AM 19.9°F 19.0°F 96% 30.40 in 6.0 miles Calm Calm - N/A   Overcast
11:53 AM 21.0°F 19.0°F 92% 30.38 in 6.0 miles Calm Calm - N/A   Overcast
12:53 PM 21.9°F 19.9°F 92% 30.39 in 7.0 miles Calm Calm - N/A   Overcast
2:20 PM 23.0°F 19.4°F 86% 30.30 in 8.0 miles Calm Calm - N/A   Overcast
2:53 PM 21.9°F 19.9°F 92% 30.41 in 9.0 miles Calm Calm - N/A   Overcast
3:53 PM 23.0°F 19.9°F 88% 30.42 in 10.0 miles Calm Calm - N/A   Overcast
4:53 PM 21.9°F 19.9°F 92% 30.44 in 10.0 miles Calm Calm - N/A   Overcast
5:53 PM 21.9°F 19.9°F 92% 30.45 in 10.0 miles Calm Calm - N/A   Overcast
6:53 PM 21.9°F 19.9°F 92% 30.46 in 10.0 miles NE 3.5 mph - N/A   Overcast
7:43 PM 21.2°F 19.4°F 93% 30.37 in 10.0 miles NE 3.5 mph - N/A   Overcast
7:53 PM 21.9°F 19.9°F 92% 30.48 in 10.0 miles Calm Calm - N/A   Overcast
8:53 PM 21.9°F 19.9°F 92% 30.49 in 10.0 miles Calm Calm - N/A   Overcast
9:53 PM 21.9°F 19.0°F 89% 30.49 in 10.0 miles Calm Calm - N/A   Overcast
10:53 PM 21.9°F 19.9°F 92% 30.51 in 10.0 miles Calm Calm - N/A   Overcast
11:48 PM 21.2°F 19.4°F 93% 30.41 in 10.0 miles Calm Calm - N/A   Overcast
11:53 PM 21.9°F 19.0°F 89% 30.50 in 10.0 miles Calm Calm - N/A   Overcast
Moon Phase
Jan. 14 Jan. 18 Jan. 26 Feb. 03 Feb. 10
Sunrise:07:34 AM (PST) Moon Rise:08:52 AM (PST)1/14
Sunset:04:23 PM (PST) Moon Set:08:34 PM (PST)1/14

Copyright © 2014 The Weather Underground, Inc.